www.pogodaiklimat.ru

Погода и климат >> Архив погоды >> Китай >> Lu Shan


ПОГОДА в Lu Shan

  • Прогноз погоды в Lu Shan
  • Монитор погоды в Lu Shan
  • Климат города

АРХИВ ПОГОДЫ в Lu Shan

Время (UTC), дата Ветер
(напр.,м/с)
 
Видим.   Явления Облачность Т
(С)
Тd
(С)
f
(%)
Тe
(С)
Тes
(С)
Комфортность P
(гПа)
Po
(гПа)
Тmin
(С)
Tmax
(С)
R
(мм)
R24
(мм)
S
(см)
03 16.09 В 8 1900 м дымка {туман} ?/? +19.8 +19.8 100 +22 +22 комфорт 1014.5 1015.0
06 16.09 В 6 400 м туман ?/? +20.2 +20.2 100 +24 +24 комфорт 1012.8 1013.0 +18.5
09 16.09 В 7 <100 м туман н/о +20.0 +20.0 100 +23 +23 комфорт 1013.1 1013.0
12 16.09 В 9 <100 м слабый дождь {морось, туман} ?/? +19.8 +19.8 100 +22 +22 комфорт 1014.5 1015.0 0.0
18 16.09 В 6 100 м слабый дождь {морось, туман} ?/? +18.7 +18.7 100 +19 +19 1013.7 1014.0 +21.4 0.1
21 16.09 В 2 4900 м дымка н/о +19.9 +19.9 100 +24 +24 комфорт 1014.7 1015.0
00 17.09 ЮВ 3 16 км 9/9 100 м
[]
+21.2 +21.2 100 +27 +27 душно 1015.8 1016.0 0.1
03 17.09 Ю 4 19 км 9/9 100 м
[]
+25.2 +20.7 76 +31 +32 очень
душно
1015.5 1016.0
06 17.09 Ю 3 18 км 9/9 100 м
[]
+25.7 +19.1 67 +31 +32 очень
душно
1014.2 1014.0 +18.5
09 17.09 ЮВ 2 19 км 4/4 100 м
[]
+24.2 +20.9 82 +30 +31 очень
душно
1014.0 1014.0
12 17.09 ЮВ 5 22 км 9/9 100 м
[]
+21.7 +19.3 86 +27 +27 душно 1016.6 1017.0
18 17.09 Ю 7 4200 м сильный дождь {туман} ?/? +18.2 +18.2 100 +18 +18 1016.9 1017.0 +27.0 18
21 17.09 Ю 4 22 км в посл. час дождь н/о +18.9 +18.9 100 +20 +20 1015.9 1016.0
00 18.09 Ю 6 21 км 9/9 300 м
[]
+21.0 +21.0 100 +26 +26 душно 1016.4 1016.0 4
03 18.09 Ю 4 20 км 9/9 300 м
[]
+22.9 +22.4 97 +31 +32 очень
душно
1017.2 1017.0
06 18.09 З 2 11 км 9/9 200 м
[]
+22.3 +22.3 100 +30 +31 очень
душно
1016.9 1017.0 +17.7
09 18.09 Ю 2 9000 м 9/9 100 м
[]
+21.9 +21.9 100 +29 +29 очень
душно
1015.8 1016.0
12 18.09 ЮЗ 1 22 км 8/8 300 м
[]
+21.2 +20.7 97 +26 +26 душно 1016.5 1017.0
18 18.09 Ю 3 22 км ?/? +21.4 +20.2 93 +27 +27 душно 1015.5 1016.0 +24.2
21 18.09 Ю 4 22 км н/о +21.9 +19.6 87 +27 +27 душно 1014.4 1014.0
00 19.09 ЮЗ 4 19 км 3/3 300 м
[]
+23.6 +20.7 84 +29 +31 душно 1015.4 1015.0
03 19.09 З 1 18 км 9/9 100 м
[]
+24.3 +23.4 95 +33 +34 очень
душно
1015.4 1015.0
06 19.09 Ю 2 12 км слабый дождь {морось} 10/10 100 м
[]
+21.7 +21.7 100 +28 +28 душно 1013.9 1014.0 +20.6 1
09 19.09 Ю 3 16 км слабый дождь 9/9 300 м
[]
+21.9 +21.9 100 +29 +29 очень
душно
1012.7 1013.0
12 19.09 Ю 2 20 км {дождь} 9/9 300 м
[]
+22.4 +21.4 94 +29 +29 очень
душно
1012.9 1013.0 0.1
18 19.09 Ю 3 20 км ?/? +22.5 +21.0 91 +29 +29 очень
душно
1011.6 1012.0 +25.6
21 19.09 Ю 4 20 км н/о +22.1 +21.3 95 +29 +29 очень
душно
1011.4 1011.0
00 20.09 Ю 2 19 км 9/9 300 м
[]
+24.3 +21.6 85 +31 +31 очень
душно
1012.3 1012.0
03 20.09 З 1 17 км 9/9 300 м
[]
+26.2 +22.1 78 +34 +36 очень
душно
1012.2 1012.0
06 20.09 З 1 17 км в посл. час дождь 8/8 300 м
[]
+26.5 +24.2 87 +37 +40 очень
душно
1010.0 1010.0 +21.7 2
09 20.09 С 3 3500 м сильный дождь 9/9 200 м
[]
+22.5 +22.5 100 +30 +31 очень
душно
1010.6 1011.0
12 20.09 С 2 200 м туман {дождь, морось} ?/? +21.4 +21.4 100 +27 +27 душно 1011.8 1012.0 30
18 20.09 ЮЗ 1 6000 м дымка ?/? +20.7 +20.7 100 +27 +27 душно 1011.0 1011.0 +28.5 0.8
21 20.09 Ю 1 200 м туман ?/? +20.1 +20.1 100 +25 +25 комфорт 1012.0 1012.0
00 21.09 штиль 0 300 м туман ?/? +20.1 +20.1 100 +24 +24 комфорт 1013.9 1014.0 0.1
03 21.09 С 2 <100 м туман {морось} ?/? +18.8 +18.8 100 +21 +21 комфорт 1015.2 1015.0
06 21.09 С 3 <100 м слабый дождь {морось, туман} ?/? +19.7 +19.7 100 +23 +23 комфорт 1013.5 1014.0 +18.0 0.2
09 21.09 С 4 200 м туман {морось} ?/? +17.8 +17.8 100 +18 +18 1014.7 1015.0
12 21.09 С 6 22 км {морось, туман} 9/9
[]
+15.9 +15.9 100 +14 +14 1016.2 1016.0
18 21.09 СВ 6 24 км ?/? +16.3 +14.0 86 +15 +15 1016.9 1017.0 +21.2
21 21.09 С 3 25 км ?/? +15.4 +15.2 99 +15 +15 1017.2 1017.0
00 22.09 С 2 16 км 8/8 100 м
[]
+19.1 +18.4 96 +21 +22 комфорт 1019.0 1019.0 0.1
03 22.09 С 3 8000 м 9/9 100 м
[]
+21.8 +19.5 87 +27 +28 душно 1018.7 1019.0
06 22.09 С 4 12 км 9/9 100 м
[]
+21.3 +16.7 75 +25 +26 комфорт 1017.2 1017.0 +15.1
09 22.09 В 11 20 км 9/9 100 м
[]
+17.7 +12.6 72 +16 +16 1017.3 1017.0
12 22.09 В 6 19 км 9/9 100 м
[]
+17.3 +13.6 79 +16 +16 1018.4 1018.0
18 22.09 В 3 19 км слабый дождь ?/? +18.6 +8.8 53 +19 +19 1017.3 1017.0 +23.2
21 22.09 С 1 22 км ?/? +18.3 +13.6 74 +20 +20 1018.0 1018.0

 

Местоположение метеостанции Lu Shan (Китай): широта 29.58 долгота 115.98 высота над уровнем моря 1165 м.

В архиве по умолчанию представлена погода в Lu Shan за последнюю неделю. Архивные данные за месяц целиком и за предыдущие месяцы, начиная с января 2011 года, Вы можете получить, выбрав интересующий диапазон дат из раскрывающегося списка и нажав кнопку "Ввод!".


*Определитесь, кто Вы:
робот инопланетянин человек

Внимание! Время в таблицах - всемирное. Для получения местного времени необходимо прибавить поправку, которая в Lu Shan равна 8 ч.

Смотрите также архив погоды в соседних городах и на ближайших метеорологических станциях:

Погода в Nanchang (Китай) (109 км)
Погода в Jingdezhen (Китай) (122 км)
Погода в Anqing (Китай) (148 км)
Погода в Xiushui (Китай) (149 км)
Погода в Macheng (Китай) (203 км)
Погода в Huoshan (Китай) (205 км)
Погода в Wuhan (Китай) (212 км)
Погода в Huang Shan (Китай) (218 км)
Погода в Nancheng (Китай) (232 км)
Погода в Yichun (Китай) (252 км)

Пояснения к столбцам:

Ветер - указаны скорость ветра в м/с - средняя за 10 мин, порывы в срок и между сроками (в фигурных скобках) и направление, откуда дует ветер: С - северный, СВ - северо-восточный, В - восточный, ЮВ - юго-восточный, Ю - южный, ЮЗ - юго-западный, З - западный, СЗ - северо-западный.
Видимость - горизонтальная дальность видимости в метрах или километрах. При видимости от 1 до 10 км при отсутствии осадков обычно наблюдается дымка, при ухудшении видимости до 1 км и менее - туман. В сухую погоду видимость может ухудшаться дымом, пылью или мглою.
Явления - указаны атмосферные явления, наблюдавшиеся в срок или в последний час перед сроком; фигурными скобками обозначены явления, наблюдавшиеся между сроками (за 1-3 часа до срока); квадратными скобками обозначены град или гололедные отложения с указанием их диаметра в мм.
Облачность - указаны через наклонную черту общая и нижняя облачность в баллах и высота нижней границы облаков в метрах; квадратными скобками обозначены формы облаков: Ci - перистые, Cs - перисто-слоистые, Cc - перисто-кучевые, Ac - высококучевые, As - высокослоистые, Sc - слоисто-кучевые, Ns - слоисто-дождевые, Cu - кучевые, Cb - кучево-дождевые. Подробнее классификацию облаков см. в Атласе облаков (PDF).
T - Температура воздуха - температура, измеренная на высоте 2 м над землей.
Td - Температура точки росы - температура, при понижении до которой содержащийся в воздухе водяной пар достигнет насыщения.
f - Относительная влажность воздуха - влажноcть воздуха, измеренная на высоте 2 м над землей.
Te - Эффективная температура - температура, которую ощущает одетый по сезону человек в тени. Характеристика душности погоды. При расчете учитывается влияние влажности воздуха и скорости ветра на теплоощущения человека.
Tes - Эффективная температура на солнце - температура, которую ощущает человек, с поправкой на солнечный нагрев. Характеристика знойности погоды. Зависит от высоты солнца над горизонтом, облачности и скорости ветра. Ночью, в пасмурную погоду, а также при ветре 12 м/с и более поправка равна нулю.
P - Атмосферное давление - приведенное к уровню моря атмосферное давление.
Po - Атмосферное давление - измеренное на уровне метеостанции атмосферное давление.
Tmin - Минимальная температура - минимум температуры воздуха на высоте 2 м над землей.
Tmax - Максимальная температура - максимум температуры воздуха на высоте 2 м над землей.
R - Количество осадков - Количество выпавших осадков за период времени, мм. При наведении курсора мыши на число - период времени, за который выпало указанное количество осадков.
R24 - Количество осадков - Количество выпавших осадков за 24 часа, мм.
S - Снежный покров - Высота снежного покрова, см. При наведении курсора мыши на число - состояние снежного покрова и степень покрытия местности в баллах.